Location: Solon
(41.3849°N, 81.4081°W)
Time: 04:40:34
(UTC-04:00)

CZ-2C R/B - Visible Passes

Search period start: 29 July 2014 00:00
Search period end: 08 August 2014 00:00
Orbit: 704 x 911 km, 98.1° (Epoch: 28 July)

Date Brightness Start Highest point End Pass type
(mag) Time Alt. Az. Time Alt. Az. Time Alt. Az.
29 Jul 3.8 04:08:48 10° SE 04:13:40 49° ENE 04:18:21 10° N visible
30 Jul 4.8 03:45:02 10° SE 03:49:19 29° ENE 03:53:28 10° N visible
30 Jul 3.7 05:24:41 10° SSW 05:29:08 31° W 05:33:28 10° NW visible
31 Jul 5.5 03:21:47 10° ESE 03:25:02 18° ENE 03:28:13 10° NNE visible
31 Jul 3.1 04:59:38 10° S 05:04:34 53° W 05:09:18 10° NNW visible
01 Aug 5.9 02:59:59 10° ENE 03:00:51 10° ENE 03:01:43 10° NE visible
01 Aug 2.9 04:35:02 10° SSE 04:40:03 88° ENE 04:44:53 10° NNW visible
02 Aug 3.7 04:10:48 10° SSE 04:15:36 51° ENE 04:20:15 10° N visible
02 Aug 4.4 05:52:36 10° SW 05:55:47 17° W 05:58:54 10° NW visible
03 Aug 4.6 03:46:58 10° SE 03:51:14 30° ENE 03:55:24 10° N visible
03 Aug 3.8 05:26:50 10° SSW 05:31:06 29° W 05:35:16 10° NW visible
04 Aug 5.4 03:23:39 10° ESE 03:26:57 19° ENE 03:30:12 10° NNE visible
04 Aug 3.1 05:01:44 10° S 05:06:31 49° W 05:11:10 10° NNW visible
05 Aug 5.8 03:01:31 10° ENE 03:02:45 11° ENE 03:03:59 10° NE visible
05 Aug 2.8 04:37:04 10° SSE 04:41:59 86° WSW 04:46:47 10° NNW visible
06 Aug 3.5 04:12:46 10° SSE 04:17:32 54° ENE 04:22:10 10° N visible
07 Aug 4.5 03:48:53 10° SE 03:53:09 32° ENE 03:57:20 10° N visible
07 Aug 3.8 05:28:59 10° SSW 05:33:04 26° W 05:37:05 10° NW visible
